• In United Kingdom
  • List of Countries
  • For 7 days
  • Water Temperature
  • Satellite Maps
  • Weather Map
  • Weather Widgets
  • user-avatar
    Login

    Hourly Weather Thessaloniki

    Today, 21 September, Thursday

    Time Temperature Precipitation Wind Pressure Humidity
    00:00 +22°C° 0 mm 4 mps 753 mmHg 46%
    01:00 +21°C° 0 mm 4 mps 753 mmHg 47%
    02:00 +20°C° 0 mm 4 mps 753 mmHg 52%
    03:00 +19°C° 0 mm 4 mps 753 mmHg 54%
    04:00 +18°C° 0 mm 3 mps 754 mmHg 56%
    05:00 +18°C° 0 mm 3 mps 754 mmHg 58%
    06:00 +18°C° 0 mm 4 mps 754 mmHg 55%
    07:00 +19°C° 0 mm 4 mps 754 mmHg 53%
    08:00 +20°C° 0 mm 4 mps 754 mmHg 48%
    09:00 +22°C° 0 mm 4 mps 754 mmHg 44%
    10:00 +23°C° 0 mm 4 mps 754 mmHg 39%
    11:00 +26°C° 0 mm 4 mps 754 mmHg 34%
    12:00 +26°C° 0 mm 4 mps 754 mmHg 32%
    13:00 +27°C° 0 mm 4 mps 754 mmHg 30%
    14:00 +28°C° 0 mm 3 mps 753 mmHg 28%
    15:00 +28°C° 0.1 mm 4 mps 753 mmHg 29%
    16:00 +27°C° 0.1 mm 4 mps 754 mmHg 30%
    17:00 +27°C° 0.1 mm 4 mps 754 mmHg 31%
    18:00 +25°C° 0.1 mm 4 mps 754 mmHg 34%
    19:00 +22°C° 0.1 mm 5 mps 755 mmHg 38%
    20:00 +21°C° 0.1 mm 5 mps 756 mmHg 41%
    21:00 +20°C° 0 mm 5 mps 756 mmHg 44%
    22:00 +19°C° 0 mm 5 mps 757 mmHg 46%
    23:00 +17°C° 0 mm 5 mps 757 mmHg 49%

    Tomorrow, 22 September, Friday

    Time Temperature Precipitation Wind Pressure Humidity
    00:00 +17°C° 0 mm 5 mps 758 mmHg 51%
    01:00 +16°C° 0 mm 5 mps 758 mmHg 53%
    02:00 +15°C° 0 mm 5 mps 758 mmHg 56%
    03:00 +15°C° 0 mm 4 mps 758 mmHg 57%
    04:00 +14°C° 0 mm 4 mps 758 mmHg 59%
    05:00 +14°C° 0 mm 4 mps 758 mmHg 61%
    06:00 +14°C° 0 mm 4 mps 759 mmHg 58%
    07:00 +15°C° 0 mm 4 mps 759 mmHg 55%
    08:00 +17°C° 0 mm 4 mps 759 mmHg 52%
    09:00 +19°C° 0 mm 4 mps 759 mmHg 45%
    10:00 +21°C° 0 mm 4 mps 759 mmHg 39%
    11:00 +23°C° 0 mm 4 mps 759 mmHg 32%
    12:00 +25°C° 0 mm 4 mps 758 mmHg 30%
    13:00 +26°C° 0 mm 4 mps 758 mmHg 28%
    14:00 +26°C° 0 mm 4 mps 758 mmHg 26%
    15:00 +26°C° 0 mm 4 mps 758 mmHg 27%
    16:00 +26°C° 0 mm 4 mps 758 mmHg 28%
    17:00 +26°C° 0 mm 4 mps 758 mmHg 29%
    18:00 +23°C° 0 mm 4 mps 758 mmHg 33%
    19:00 +21°C° 0 mm 3 mps 759 mmHg 36%
    20:00 +20°C° 0 mm 3 mps 760 mmHg 40%
    21:00 +19°C° 0 mm 3 mps 760 mmHg 43%
    22:00 +18°C° 0 mm 3 mps 760 mmHg 45%
    23:00 +17°C° 0 mm 3 mps 761 mmHg 48%

    Day after tomorrow, 23 September, Saturday

    Time Temperature Precipitation Wind Pressure Humidity
    00:00 +17°C° 0 mm 3 mps 761 mmHg 50%
    01:00 +16°C° 0 mm 3 mps 761 mmHg 52%
    02:00 +16°C° 0 mm 3 mps 761 mmHg 54%
    03:00 +16°C° 0 mm 3 mps 761 mmHg 56%
    04:00 +14°C° 0 mm 3 mps 761 mmHg 58%
    05:00 +14°C° 0 mm 3 mps 761 mmHg 60%
    06:00 +16°C° 0 mm 3 mps 761 mmHg 57%
    07:00 +17°C° 0 mm 3 mps 761 mmHg 54%
    08:00 +18°C° 0 mm 3 mps 761 mmHg 51%
    09:00 +20°C° 0 mm 3 mps 761 mmHg 45%
    10:00 +22°C° 0 mm 3 mps 761 mmHg 39%
    11:00 +25°C° 0 mm 3 mps 761 mmHg 32%
    12:00 +26°C° 0 mm 3 mps 760 mmHg 30%
    13:00 +27°C° 0 mm 3 mps 760 mmHg 28%
    14:00 +28°C° 0 mm 3 mps 759 mmHg 26%
    15:00 +27°C° 0 mm 3 mps 759 mmHg 27%
    16:00 +27°C° 0 mm 3 mps 759 mmHg 28%
    17:00 +27°C° 0 mm 3 mps 759 mmHg 28%
    18:00 +25°C° 0 mm 2 mps 759 mmHg 34%
    19:00 +23°C° 0 mm 2 mps 760 mmHg 39%
    20:00 +21°C° 0 mm 1 mps 760 mmHg 45%
    21:00 +21°C° 0 mm 1 mps 760 mmHg 47%
    22:00 +20°C° 0 mm 1 mps 760 mmHg 50%
    23:00 +20°C° 0 mm 1 mps 760 mmHg 52%

    24 September, Sunday

    Time Temperature Precipitation Wind Pressure Humidity
    00:00 +20°C° 0 mm 1 mps 760 mmHg 55%
    01:00 +19°C° 0 mm 1 mps 760 mmHg 57%
    02:00 +19°C° 0 mm 1 mps 760 mmHg 59%
    03:00 +18°C° 0 mm 1 mps 760 mmHg 61%
    04:00 +18°C° 0 mm 1 mps 760 mmHg 62%
    05:00 +17°C° 0 mm 2 mps 760 mmHg 64%
    06:00 +19°C° 0 mm 1 mps 760 mmHg 61%
    07:00 +20°C° 0 mm 1 mps 760 mmHg 59%
    08:00 +20°C° 0 mm 1 mps 760 mmHg 56%
    09:00 +22°C° 0 mm 1 mps 760 mmHg 53%
    10:00 +23°C° 0 mm 1 mps 760 mmHg 49%
    11:00 +25°C° 0 mm 1 mps 760 mmHg 45%
    12:00 +26°C° 0 mm 2 mps 759 mmHg 44%
    13:00 +26°C° 0 mm 2 mps 759 mmHg 43%
    14:00 +27°C° 0 mm 3 mps 759 mmHg 41%
    15:00 +27°C° 0.1 mm 3 mps 759 mmHg 43%
    16:00 +26°C° 0.1 mm 3 mps 758 mmHg 45%
    17:00 +26°C° 0.1 mm 3 mps 758 mmHg 46%
    18:00 +24°C° 0.1 mm 2 mps 759 mmHg 53%
    19:00 +23°C° 0.1 mm 2 mps 759 mmHg 60%
    20:00 +21°C° 0.1 mm 1 mps 759 mmHg 67%
    21:00 +21°C° 0.3 mm 1 mps 760 mmHg 68%
    22:00 +20°C° 0.3 mm 1 mps 760 mmHg 70%
    23:00 +20°C° 0.3 mm 1 mps 760 mmHg 71%

    25 September, Monday

    Time Temperature Precipitation Wind Pressure Humidity
    00:00 +20°C° 0.1 mm 1 mps 760 mmHg 72%
    01:00 +19°C° 0.1 mm 1 mps 760 mmHg 72%
    02:00 +19°C° 0.1 mm 1 mps 760 mmHg 73%
    03:00 +19°C° 0 mm 1 mps 760 mmHg 73%
    04:00 +18°C° 0 mm 1 mps 760 mmHg 73%
    05:00 +18°C° 0 mm 1 mps 760 mmHg 73%
    06:00 +19°C° 0 mm 1 mps 760 mmHg 69%
    07:00 +20°C° 0 mm 1 mps 760 mmHg 64%
    08:00 +21°C° 0 mm 1 mps 760 mmHg 60%
    09:00 +23°C° 0.1 mm 1 mps 760 mmHg 52%
    10:00 +25°C° 0.1 mm 1 mps 760 mmHg 45%
    11:00 +26°C° 0.1 mm 1 mps 760 mmHg 38%
    12:00 +27°C° 0 mm 1 mps 759 mmHg 36%
    13:00 +28°C° 0 mm 2 mps 759 mmHg 33%
    14:00 +28°C° 0 mm 2 mps 758 mmHg 31%
    15:00 +28°C° 0 mm 2 mps 758 mmHg 32%
    16:00 +28°C° 0 mm 2 mps 758 mmHg 33%
    17:00 +27°C° 0 mm 2 mps 758 mmHg 34%
    18:00 +26°C° 0.1 mm 2 mps 759 mmHg 39%
    19:00 +24°C° 0.1 mm 2 mps 759 mmHg 45%
    20:00 +22°C° 0.1 mm 1 mps 759 mmHg 50%
    21:00 +22°C° 0 mm 1 mps 759 mmHg 52%
    22:00 +21°C° 0 mm 1 mps 760 mmHg 53%
    23:00 +21°C° 0 mm 1 mps 760 mmHg 55%

    26 September, Tuesday

    Time Temperature Precipitation Wind Pressure Humidity
    00:00 +21°C° 0 mm 1 mps 760 mmHg 55%
    01:00 +20°C° 0 mm 1 mps 760 mmHg 56%
    02:00 +20°C° 0 mm 1 mps 760 mmHg 57%
    03:00 +20°C° 0 mm 1 mps 759 mmHg 57%
    04:00 +18°C° 0 mm 2 mps 759 mmHg 58%
    05:00 +18°C° 0 mm 2 mps 759 mmHg 58%
    06:00 +19°C° 0 mm 2 mps 759 mmHg 55%
    07:00 +20°C° 0 mm 2 mps 759 mmHg 51%
    08:00 +21°C° 0 mm 2 mps 759 mmHg 48%
    09:00 +24°C° 0 mm 2 mps 759 mmHg 43%
    10:00 +25°C° 0 mm 1 mps 759 mmHg 38%
    11:00 +27°C° 0 mm 1 mps 759 mmHg 33%
    12:00 +28°C° 0 mm 2 mps 759 mmHg 31%
    13:00 +29°C° 0 mm 2 mps 759 mmHg 30%
    14:00 +29°C° 0 mm 2 mps 758 mmHg 29%
    15:00 +29°C° 0.1 mm 2 mps 758 mmHg 30%
    16:00 +28°C° 0.1 mm 3 mps 758 mmHg 32%
    17:00 +28°C° 0.1 mm 3 mps 758 mmHg 33%
    18:00 +26°C° 0.1 mm 2 mps 759 mmHg 39%
    19:00 +24°C° 0.1 mm 2 mps 759 mmHg 46%
    20:00 +23°C° 0.1 mm 2 mps 759 mmHg 52%
    21:00 +22°C° 0 mm 1 mps 759 mmHg 54%
    22:00 +22°C° 0 mm 1 mps 760 mmHg 55%
    23:00 +21°C° 0 mm 1 mps 760 mmHg 57%
    Show more